Regional Weather Roundup
Issued by NWS

Home | Current Version | Previous Version | Text Only | Print | Product List | Glossary On
Versions: 1 2 3 4 5 6 7 8 9 10 11 12 13 14 15 16 17 18 19 20 21 22 23 24 25 26 27 28 29 30 31 32 33 34 35 36 37 38 39 40 41 42 43 44 45 46 47 48 49 50
000
ASUS45 KABQ 170210
RWRNM
NEW MEXICO REGIONAL WEATHER ROUNDUP
NATIONAL WEATHER SERVICE ALBUQUERQUE NM
700 PM MST MON JAN 16 2017

NOTE: "FAIR" MEANS FEW OR NO CLOUDS BELOW 12,000 FEET AGL WITH NO
       SIGNIFICANT WEATHER OR OBSTRUCTIONS TO VISION.

      THIS PRODUCT IS RELEASED AS TWO VERSIONS.  ONE VERSION NEAR
      THE TOP OF THE HOUR CONTAINING PRELIMINARY DATA FROM ALBUQUERQUE
      AND OTHER STATIONS.  A FINAL VERSION WITH ADDITIONAL DATA IS
      ISSUED ABOUT 10 MINUTES AFTER THE HOUR.

NMZ501-503-504-510>518-170300-
NORTHWEST PLATEAU/NORTHCENTRAL MOUNTAINS

CITY           SKY/WX    TMP DP  RH WIND       PRES   REMARKS
FARMINGTON     MIX PCPN  33  32  96 SW5       30.04R WCI  29
LOS ALAMOS     SNOW      32  32 100 CALM      30.07R VSB 1/4
SANTA FE       CLOUDY    37  33  85 SE12      30.05R WCI  29
TAOS           CLOUDY    32  25  74 CALM      30.05S
ANGEL FIRE     CLOUDY    29  28  95 CALM      30.06R

$$
NMZ402-403-502-505>509-170300-
WESTCENTRAL MOUNTAINS/SOUTHWEST MOUNTAINS

CITY           SKY/WX    TMP DP  RH WIND       PRES   REMARKS
GALLUP         LGT SNOW  33  32  96 E5        30.05R FOG     WCI  29
GRANTS         CLOUDY    38  32  78 SW3       30.06R
SILVER CITY    FAIR      41  36  82 NW7       30.05R

$$
NMZ407-409-411-412-170300-
SOUTHERN DESERTS

CITY           SKY/WX    TMP DP  RH WIND       PRES   REMARKS
DEMING         FAIR      45  39  79 W3        30.04R
LAS CRUCES     FAIR      46  38  76 W5        30.05S
HOLLOMAN AFB   MOCLDY    47  44  89 W5        30.08R
ALAMOGORDO     FAIR      45  37  76 SE7       30.06R
T OR C         LGT RAIN  44  38  79 N8        30.04R

$$
NMZ519>523-170300-
CENTRAL VALLEYS/CENTRAL HIGHLANDS

CITY           SKY/WX    TMP DP  RH WIND       PRES   REMARKS
ALBUQUERQUE    MOCLDY    45  38  76 SW9       30.05R
DOUBLE EAGLE   LGT RAIN  39  37  93 W6        30.05R WCI  35
MORIARTY ARPT  CLOUDY    35  32  90 E13       30.08R WCI  26
CLINES CORNERS LGT SNOW  32  31  96 E7        30.08R FOG     WCI  26
BELEN          CLOUDY    42  37  83 S6        30.06R
SOCORRO        CLOUDY    44  39  82 CALM      30.05R

$$
NMZ524>526-539-540-170300-
SOUTHCENTRAL MOUNTAINS

CITY           SKY/WX    TMP DP  RH WIND       PRES   REMARKS
RUIDOSO        CLOUDY    37  32  81 CALM      30.10R

$$
NMZ527>531-170300-
NORTHEAST HIGHLANDS/NORTHEAST PLAINS

CITY           SKY/WX    TMP DP  RH WIND       PRES   REMARKS
LAS VEGAS      CLOUDY    32  29  88 E8        30.08R WCI  25
RATON          CLOUDY    33  24  69 N21G26    30.05R WCI  21
CLAYTON        MOCLDY    33  32  96 N13       30.08R WCI  24

$$
NMZ532>537-170300-
EASTCENTRAL PLAINS

CITY           SKY/WX    TMP DP  RH WIND       PRES   REMARKS
TUCUMCARI      CLOUDY    41  32  70 NE14      30.09R
CANNON AFB     FAIR      38  38 100 NE10      30.09R WCI  32
CLOVIS AIRPORT FAIR      37  30  75 NE12      30.09R WCI  30

$$
NMZ028-029-538-170300-
SOUTHEAST PLAINS

CITY           SKY/WX    TMP DP  RH WIND       PRES   REMARKS
ROSWELL        CLOUDY    51  40  65 N9        30.02R
ARTESIA        FAIR      50  41  71 SW5       30.03R
CARLSBAD       FAIR      48  39  71 W10       30.01R


$$




USA.gov is the U.S. government's official web portal to all federal, state and local government web resources and services.